owner,sensor,date,latitude,longitude,vertical_datum,wind_speed,wind_to_direction,wind_speed_of_gust,qcFlag 
ADCP,ioos:station:wmo:42887:1,2014-02-01T00:00:00Z,28.1910,-88.4960,48.2,2.7,129.0,99.0,'11111222,11111222,11144222' 
ADCP,ioos:station:wmo:42887:1,2014-02-01T00:20:00Z,28.1910,-88.4960,48.2,4.0,131.0,99.0,'11111222,11111222,11144222' 
ADCP,ioos:station:wmo:42887:1,2014-02-01T00:40:00Z,28.1910,-88.4960,48.2,2.5,119.0,99.0,'11111222,11111222,11144222' 
ADCP,ioos:station:wmo:42887:1,2014-02-01T01:00:00Z,28.1910,-88.4960,48.2,2.9,95.0,99.0,'11111222,11111222,11144222' 
ADCP,ioos:station:wmo:42887:1,2014-02-01T01:20:00Z,28.1910,-88.4960,48.2,3.3,86.0,99.0,'11111222,11111222,11144222' 
ADCP,ioos:station:wmo:42887:1,2014-02-01T01:40:00Z,28.1910,-88.4960,48.2,2.7,89.0,99.0,'11111222,11111222,11144222' 
ADCP,ioos:station:wmo:42887:1,2014-02-01T02:00:00Z,28.1910,-88.4960,48.2,3.7,91.0,99.0,'11111222,11111222,11144222' 
ADCP,ioos:station:wmo:42887:1,2014-02-01T02:20:00Z,28.1910,-88.4960,48.2,4.6,97.0,99.0,'11111222,11111222,11144222' 
ADCP,ioos:station:wmo:42887:1,2014-02-01T02:40:00Z,28.1910,-88.4960,48.2,3.6,93.0,99.0,'11111222,11111222,11144222' 
ADCP,ioos:station:wmo:42887:1,2014-02-01T03:00:00Z,28.1910,-88.4960,48.2,2.8,141.0,99.0,'11111222,11111222,11144222' 
ADCP,ioos:station:wmo:42887:1,2014-02-01T03:20:00Z,28.1910,-88.4960,48.2,4.3,124.0,99.0,'11111222,11111222,11144222' 
ADCP,ioos:station:wmo:42887:1,2014-02-01T03:40:00Z,28.1910,-88.4960,48.2,3.9,112.0,99.0,'11111222,11111222,11144222' 
ADCP,ioos:station:wmo:42887:1,2014-02-01T04:00:00Z,28.1910,-88.4960,48.2,4.3,122.0,99.0,'11111222,11111222,11144222' 
ADCP,ioos:station:wmo:42887:1,2014-02-01T04:20:00Z,28.1910,-88.4960,48.2,3.3,149.0,99.0,'11111222,11111222,11144222' 
ADCP,ioos:station:wmo:42887:1,2014-02-01T04:40:00Z,28.1910,-88.4960,48.2,1.9,151.0,99.0,'11111222,11111222,11144222' 
ADCP,ioos:station:wmo:42887:1,2014-02-01T05:00:00Z,28.1910,-88.4960,48.2,4.9,132.0,99.0,'11111222,11111222,11144222' 
ADCP,ioos:station:wmo:42887:1,2014-02-01T05:20:00Z,28.1910,-88.4960,48.2,4.8,134.0,99.0,'11111222,11111222,11144222' 
ADCP,ioos:station:wmo:42887:1,2014-02-01T05:40:00Z,28.1910,-88.4960,48.2,5.4,146.0,99.0,'11111222,11111222,11144222' 
ADCP,ioos:station:wmo:42887:1,2014-02-01T06:00:00Z,28.1910,-88.4960,48.2,3.7,136.0,99.0,'11111222,11111222,11144222' 
ADCP,ioos:station:wmo:42887:1,2014-02-01T06:20:00Z,28.1910,-88.4960,48.2,3.7,166.0,99.0,'11111222,11111222,11144222' 
ADCP,ioos:station:wmo:42887:1,2014-02-01T06:40:00Z,28.1910,-88.4960,48.2,3.1,138.0,99.0,'11111222,11111222,11144222' 
ADCP,ioos:station:wmo:42887:1,2014-02-01T07:00:00Z,28.1910,-88.4960,48.2,2.8,138.0,99.0,'11111222,11111222,11144222' 
ADCP,ioos:station:wmo:42887:1,2014-02-01T07:20:00Z,28.1910,-88.4960,48.2,3.5,147.0,99.0,'11111222,11111222,11144222' 
ADCP,ioos:station:wmo:42887:1,2014-02-01T07:40:00Z,28.1910,-88.4960,48.2,2.4,152.0,99.0,'11111222,11111222,11144222' 
ADCP,ioos:station:wmo:42887:1,2014-02-01T08:00:00Z,28.1910,-88.4960,48.2,2.8,137.0,99.0,'11111222,11111222,11144222' 
ADCP,ioos:station:wmo:42887:1,2014-02-01T08:20:00Z,28.1910,-88.4960,48.2,1.5,131.0,99.0,'11111222,11111222,11144222' 
ADCP,ioos:station:wmo:42887:1,2014-02-01T08:40:00Z,28.1910,-88.4960,48.2,3.7,132.0,99.0,'11111222,11111222,11144222' 
ADCP,ioos:station:wmo:42887:1,2014-02-01T09:00:00Z,28.1910,-88.4960,48.2,3.3,130.0,99.0,'11111222,11111222,11144222' 
ADCP,ioos:station:wmo:42887:1,2014-02-01T09:20:00Z,28.1910,-88.4960,48.2,2.9,125.0,99.0,'11111222,11111222,11144222' 
ADCP,ioos:station:wmo:42887:1,2014-02-01T09:40:00Z,28.1910,-88.4960,48.2,2.7,116.0,99.0,'11111222,11111222,11144222' 
ADCP,ioos:station:wmo:42887:1,2014-02-01T10:00:00Z,28.1910,-88.4960,48.2,3.6,134.0,99.0,'11111222,11111222,11144222' 
ADCP,ioos:station:wmo:42887:1,2014-02-01T10:20:00Z,28.1910,-88.4960,48.2,3.0,126.0,99.0,'11111222,11111222,11144222' 
ADCP,ioos:station:wmo:42887:1,2014-02-01T10:40:00Z,28.1910,-88.4960,48.2,2.8,134.0,99.0,'11111222,11111222,11144222' 
ADCP,ioos:station:wmo:42887:1,2014-02-01T11:00:00Z,28.1910,-88.4960,48.2,3.1,128.0,99.0,'11111222,11111222,11144222' 
ADCP,ioos:station:wmo:42887:1,2014-02-01T11:20:00Z,28.1910,-88.4960,48.2,2.8,121.0,99.0,'11111222,11111222,11144222' 
ADCP,ioos:station:wmo:42887:1,2014-02-01T11:40:00Z,28.1910,-88.4960,48.2,3.0,114.0,99.0,'11111222,11111222,11144222' 
ADCP,ioos:station:wmo:42887:1,2014-02-01T12:00:00Z,28.1910,-88.4960,48.2,3.7,122.0,99.0,'11111222,11111222,11144222' 
ADCP,ioos:station:wmo:42887:1,2014-02-01T12:20:00Z,28.1910,-88.4960,48.2,4.1,123.0,99.0,'11111222,11111222,11144222' 
ADCP,ioos:station:wmo:42887:1,2014-02-01T12:40:00Z,28.1910,-88.4960,48.2,4.4,126.0,99.0,'11111222,11111222,11144222' 
ADCP,ioos:station:wmo:42887:1,2014-02-01T13:00:00Z,28.1910,-88.4960,48.2,4.7,129.0,99.0,'11111222,11111222,11144222' 
ADCP,ioos:station:wmo:42887:1,2014-02-01T13:20:00Z,28.1910,-88.4960,48.2,4.2,136.0,99.0,'11111222,11111222,11144222' 
ADCP,ioos:station:wmo:42887:1,2014-02-01T13:40:00Z,28.1910,-88.4960,48.2,6.0,133.0,99.0,'11111222,11111222,11144222' 
ADCP,ioos:station:wmo:42887:1,2014-02-01T14:00:00Z,28.1910,-88.4960,48.2,4.2,143.0,99.0,'11111222,11111222,11144222' 
ADCP,ioos:station:wmo:42887:1,2014-02-01T14:20:00Z,28.1910,-88.4960,48.2,6.8,130.0,99.0,'11111222,11111222,11144222' 
ADCP,ioos:station:wmo:42887:1,2014-02-01T14:40:00Z,28.1910,-88.4960,48.2,4.8,139.0,99.0,'11111222,11111222,11144222' 
ADCP,ioos:station:wmo:42887:1,2014-02-01T15:00:00Z,28.1910,-88.4960,48.2,7.4,131.0,99.0,'11111222,11111222,11144222' 
ADCP,ioos:station:wmo:42887:1,2014-02-01T15:20:00Z,28.1910,-88.4960,48.2,8.1,94.0,99.0,'11111222,11111222,11144222' 
ADCP,ioos:station:wmo:42887:1,2014-02-01T15:40:00Z,28.1910,-88.4960,48.2,7.1,129.0,99.0,'11111222,11111222,11144222' 
ADCP,ioos:station:wmo:42887:1,2014-02-01T16:00:00Z,28.1910,-88.4960,48.2,6.8,132.0,99.0,'11111222,11111222,11144222' 
ADCP,ioos:station:wmo:42887:1,2014-02-01T16:20:00Z,28.1910,-88.4960,48.2,7.6,128.0,99.0,'11111222,11111222,11144222' 
ADCP,ioos:station:wmo:42887:1,2014-02-01T16:40:00Z,28.1910,-88.4960,48.2,7.7,127.0,99.0,'11111222,11111222,11144222' 
ADCP,ioos:station:wmo:42887:1,2014-02-01T17:00:00Z,28.1910,-88.4960,48.2,8.3,137.0,99.0,'11111222,11111222,11144222' 
ADCP,ioos:station:wmo:42887:1,2014-02-01T17:20:00Z,28.1910,-88.4960,48.2,9.3,134.0,99.0,'11111222,11111222,11144222' 
ADCP,ioos:station:wmo:42887:1,2014-02-01T17:40:00Z,28.1910,-88.4960,48.2,7.9,138.0,99.0,'11111222,11111222,11144222' 
ADCP,ioos:station:wmo:42887:1,2014-02-01T18:00:00Z,28.1910,-88.4960,48.2,5.6,138.0,99.0,'11111222,11111222,11144222' 
ADCP,ioos:station:wmo:42887:1,2014-02-01T18:20:00Z,28.1910,-88.4960,48.2,6.3,138.0,99.0,'11111222,11111222,11144222' 
ADCP,ioos:station:wmo:42887:1,2014-02-01T18:40:00Z,28.1910,-88.4960,48.2,7.1,128.0,99.0,'11111222,11111222,11144222' 
ADCP,ioos:station:wmo:42887:1,2014-02-01T19:00:00Z,28.1910,-88.4960,48.2,5.0,138.0,99.0,'11111222,11111222,11144222' 
ADCP,ioos:station:wmo:42887:1,2014-02-01T19:20:00Z,28.1910,-88.4960,48.2,5.3,133.0,99.0,'11111222,11111222,11144222' 
ADCP,ioos:station:wmo:42887:1,2014-02-01T19:40:00Z,28.1910,-88.4960,48.2,5.8,115.0,99.0,'11111222,11111222,11144222' 
ADCP,ioos:station:wmo:42887:1,2014-02-01T20:00:00Z,28.1910,-88.4960,48.2,6.0,123.0,99.0,'11111222,11111222,11144222' 
ADCP,ioos:station:wmo:42887:1,2014-02-01T20:20:00Z,28.1910,-88.4960,48.2,6.4,132.0,99.0,'11111222,11111222,11144222' 
ADCP,ioos:station:wmo:42887:1,2014-02-01T20:40:00Z,28.1910,-88.4960,48.2,7.0,128.0,99.0,'11111222,11111222,11144222' 
ADCP,ioos:station:wmo:42887:1,2014-02-01T21:00:00Z,28.1910,-88.4960,48.2,6.0,130.0,99.0,'11111222,11111222,11144222' 
ADCP,ioos:station:wmo:42887:1,2014-02-01T21:20:00Z,28.1910,-88.4960,48.2,7.1,128.0,99.0,'11111222,11111222,11144222' 
ADCP,ioos:station:wmo:42887:1,2014-02-01T21:40:00Z,28.1910,-88.4960,48.2,7.6,130.0,99.0,'11111222,11111222,11144222' 
ADCP,ioos:station:wmo:42887:1,2014-02-01T22:00:00Z,28.1910,-88.4960,48.2,7.2,127.0,99.0,'11111222,11111222,11144222' 
ADCP,ioos:station:wmo:42887:1,2014-02-01T22:20:00Z,28.1910,-88.4960,48.2,6.7,131.0,99.0,'11111222,11111222,11144222' 
ADCP,ioos:station:wmo:42887:1,2014-02-01T22:40:00Z,28.1910,-88.4960,48.2,5.9,131.0,99.0,'11111222,11111222,11144222' 
ADCP,ioos:station:wmo:42887:1,2014-02-01T23:00:00Z,28.1910,-88.4960,48.2,7.8,134.0,99.0,'11111222,11111222,11144222' 
ADCP,ioos:station:wmo:42887:1,2014-02-01T23:20:00Z,28.1910,-88.4960,48.2,7.9,123.0,99.0,'11111222,11111222,11144222' 
ADCP,ioos:station:wmo:42887:1,2014-02-01T23:40:00Z,28.1910,-88.4960,48.2,6.2,119.0,99.0,'11111222,11111222,11144222' 
ADCP,ioos:station:wmo:42887:1,2014-02-02T00:00:00Z,28.1910,-88.4960,48.2,7.6,128.0,99.0,'11111222,11111222,11144222' 
ADCP,ioos:station:wmo:42887:1,2014-02-02T00:20:00Z,28.1910,-88.4960,48.2,6.5,130.0,99.0,'11111222,11111222,11144222' 
ADCP,ioos:station:wmo:42887:1,2014-02-02T00:40:00Z,28.1910,-88.4960,48.2,5.6,135.0,99.0,'11111222,11111222,11144222' 
ADCP,ioos:station:wmo:42887:1,2014-02-02T01:00:00Z,28.1910,-88.4960,48.2,7.6,133.0,99.0,'11111222,11111222,11144222' 
ADCP,ioos:station:wmo:42887:1,2014-02-02T01:20:00Z,28.1910,-88.4960,48.2,6.0,136.0,99.0,'11111222,11111222,11144222' 
ADCP,ioos:station:wmo:42887:1,2014-02-02T01:40:00Z,28.1910,-88.4960,48.2,5.7,129.0,99.0,'11111222,11111222,11144222' 
ADCP,ioos:station:wmo:42887:1,2014-02-02T02:00:00Z,28.1910,-88.4960,48.2,7.1,125.0,99.0,'11111222,11111222,11144222' 
ADCP,ioos:station:wmo:42887:1,2014-02-02T02:20:00Z,28.1910,-88.4960,48.2,6.0,136.0,99.0,'11111222,11111222,11144222' 
ADCP,ioos:station:wmo:42887:1,2014-02-02T02:40:00Z,28.1910,-88.4960,48.2,5.8,129.0,99.0,'11111222,11111222,11144222' 
ADCP,ioos:station:wmo:42887:1,2014-02-02T03:00:00Z,28.1910,-88.4960,48.2,6.2,134.0,99.0,'11111222,11111222,11144222' 
ADCP,ioos:station:wmo:42887:1,2014-02-02T03:20:00Z,28.1910,-88.4960,48.2,6.9,131.0,99.0,'11111222,11111222,11144222' 
ADCP,ioos:station:wmo:42887:1,2014-02-02T03:40:00Z,28.1910,-88.4960,48.2,7.3,137.0,99.0,'11111222,11111222,11144222' 
ADCP,ioos:station:wmo:42887:1,2014-02-02T04:00:00Z,28.1910,-88.4960,48.2,7.3,126.0,99.0,'11111222,11111222,11144222' 
ADCP,ioos:station:wmo:42887:1,2014-02-02T04:20:00Z,28.1910,-88.4960,48.2,7.1,138.0,99.0,'11111222,11111222,11144222' 
ADCP,ioos:station:wmo:42887:1,2014-02-02T04:40:00Z,28.1910,-88.4960,48.2,8.3,134.0,99.0,'11111222,11111222,11144222' 
ADCP,ioos:station:wmo:42887:1,2014-02-02T05:00:00Z,28.1910,-88.4960,48.2,7.5,133.0,99.0,'11111222,11111222,11144222' 
ADCP,ioos:station:wmo:42887:1,2014-02-02T05:20:00Z,28.1910,-88.4960,48.2,7.2,130.0,99.0,'11111222,11111222,11144222' 
ADCP,ioos:station:wmo:42887:1,2014-02-02T05:40:00Z,28.1910,-88.4960,48.2,7.3,136.0,99.0,'11111222,11111222,11144222' 
ADCP,ioos:station:wmo:42887:1,2014-02-02T06:00:00Z,28.1910,-88.4960,48.2,7.2,122.0,99.0,'11111222,11111222,11144222' 
ADCP,ioos:station:wmo:42887:1,2014-02-02T06:20:00Z,28.1910,-88.4960,48.2,6.3,133.0,99.0,'11111222,11111222,11144222' 
ADCP,ioos:station:wmo:42887:1,2014-02-02T06:40:00Z,28.1910,-88.4960,48.2,6.0,123.0,99.0,'11111222,11111222,11144222' 
ADCP,ioos:station:wmo:42887:1,2014-02-02T07:00:00Z,28.1910,-88.4960,48.2,7.2,120.0,99.0,'11111222,11111222,11144222' 
ADCP,ioos:station:wmo:42887:1,2014-02-02T07:20:00Z,28.1910,-88.4960,48.2,6.6,137.0,99.0,'11111222,11111222,11144222' 
ADCP,ioos:station:wmo:42887:1,2014-02-02T07:40:00Z,28.1910,-88.4960,48.2,8.0,115.0,99.0,'11111222,11111222,11144222' 
ADCP,ioos:station:wmo:42887:1,2014-02-02T08:00:00Z,28.1910,-88.4960,48.2,6.2,108.0,99.0,'11111222,11111222,11144222' 
ADCP,ioos:station:wmo:42887:1,2014-02-02T08:20:00Z,28.1910,-88.4960,48.2,7.6,122.0,99.0,'11111222,11111222,11144222' 
ADCP,ioos:station:wmo:42887:1,2014-02-02T08:40:00Z,28.1910,-88.4960,48.2,6.9,124.0,99.0,'11111222,11111222,11144222' 
ADCP,ioos:station:wmo:42887:1,2014-02-02T09:00:00Z,28.1910,-88.4960,48.2,7.2,132.0,99.0,'11111222,11111222,11144222' 
ADCP,ioos:station:wmo:42887:1,2014-02-02T09:20:00Z,28.1910,-88.4960,48.2,7.0,125.0,99.0,'11111222,11111222,11144222' 
ADCP,ioos:station:wmo:42887:1,2014-02-02T09:40:00Z,28.1910,-88.4960,48.2,6.6,110.0,99.0,'11111222,11111222,11144222' 
ADCP,ioos:station:wmo:42887:1,2014-02-02T10:00:00Z,28.1910,-88.4960,48.2,6.9,139.0,99.0,'11111222,11111222,11144222' 
ADCP,ioos:station:wmo:42887:1,2014-02-02T10:20:00Z,28.1910,-88.4960,48.2,8.0,133.0,99.0,'11111222,11111222,11144222' 
ADCP,ioos:station:wmo:42887:1,2014-02-02T10:40:00Z,28.1910,-88.4960,48.2,8.3,123.0,99.0,'11111222,11111222,11144222' 
ADCP,ioos:station:wmo:42887:1,2014-02-02T11:00:00Z,28.1910,-88.4960,48.2,6.0,121.0,99.0,'11111222,11111222,11144222' 
ADCP,ioos:station:wmo:42887:1,2014-02-02T11:20:00Z,28.1910,-88.4960,48.2,7.2,134.0,99.0,'11111222,11111222,11144222' 
ADCP,ioos:station:wmo:42887:1,2014-02-02T11:40:00Z,28.1910,-88.4960,48.2,7.7,115.0,99.0,'11111222,11111222,11144222' 
ADCP,ioos:station:wmo:42887:1,2014-02-02T12:00:00Z,28.1910,-88.4960,48.2,7.2,118.0,99.0,'11111222,11111222,11144222' 
ADCP,ioos:station:wmo:42887:1,2014-02-02T12:20:00Z,28.1910,-88.4960,48.2,6.2,130.0,99.0,'11111222,11111222,11144222' 
ADCP,ioos:station:wmo:42887:1,2014-02-02T12:40:00Z,28.1910,-88.4960,48.2,6.2,136.0,99.0,'11111222,11111222,11144222' 
ADCP,ioos:station:wmo:42887:1,2014-02-02T13:00:00Z,28.1910,-88.4960,48.2,7.6,119.0,99.0,'11111222,11111222,11144222' 
ADCP,ioos:station:wmo:42887:1,2014-02-02T13:20:00Z,28.1910,-88.4960,48.2,8.0,124.0,99.0,'11111222,11111222,11144222' 
ADCP,ioos:station:wmo:42887:1,2014-02-02T13:40:00Z,28.1910,-88.4960,48.2,8.6,129.0,99.0,'11111222,11111222,11144222' 
ADCP,ioos:station:wmo:42887:1,2014-02-02T14:00:00Z,28.1910,-88.4960,48.2,7.9,130.0,99.0,'11111222,11111222,11144222' 
ADCP,ioos:station:wmo:42887:1,2014-02-02T14:20:00Z,28.1910,-88.4960,48.2,9.1,136.0,99.0,'11111222,11111222,11144222' 
ADCP,ioos:station:wmo:42887:1,2014-02-02T14:40:00Z,28.1910,-88.4960,48.2,5.6,98.0,99.0,'11111222,11111222,11144222' 
ADCP,ioos:station:wmo:42887:1,2014-02-02T15:00:00Z,28.1910,-88.4960,48.2,5.6,140.0,99.0,'11111222,11111222,11144222' 
ADCP,ioos:station:wmo:42887:1,2014-02-02T15:20:00Z,28.1910,-88.4960,48.2,8.8,130.0,99.0,'11111222,11111222,11144222' 
ADCP,ioos:station:wmo:42887:1,2014-02-02T15:40:00Z,28.1910,-88.4960,48.2,8.4,136.0,99.0,'11111222,11111222,11144222' 
ADCP,ioos:station:wmo:42887:1,2014-02-02T16:00:00Z,28.1910,-88.4960,48.2,9.1,134.0,99.0,'11111222,11111222,11144222' 
ADCP,ioos:station:wmo:42887:1,2014-02-02T16:20:00Z,28.1910,-88.4960,48.2,9.0,140.0,99.0,'11111222,11111222,11144222' 
ADCP,ioos:station:wmo:42887:1,2014-02-02T16:40:00Z,28.1910,-88.4960,48.2,7.1,144.0,99.0,'11111222,11111222,11144222' 
ADCP,ioos:station:wmo:42887:1,2014-02-02T17:00:00Z,28.1910,-88.4960,48.2,8.9,141.0,99.0,'11111222,11111222,11144222' 
ADCP,ioos:station:wmo:42887:1,2014-02-02T17:20:00Z,28.1910,-88.4960,48.2,8.7,144.0,99.0,'11111222,11111222,11144222' 
ADCP,ioos:station:wmo:42887:1,2014-02-02T17:40:00Z,28.1910,-88.4960,48.2,9.5,141.0,99.0,'11111222,11111222,11144222' 
ADCP,ioos:station:wmo:42887:1,2014-02-02T18:00:00Z,28.1910,-88.4960,48.2,9.3,140.0,99.0,'11111222,11111222,11144222' 
ADCP,ioos:station:wmo:42887:1,2014-02-02T18:20:00Z,28.1910,-88.4960,48.2,6.5,139.0,99.0,'11111222,11111222,11144222' 
ADCP,ioos:station:wmo:42887:1,2014-02-02T18:40:00Z,28.1910,-88.4960,48.2,4.9,163.0,99.0,'11111222,11111222,11144222' 
ADCP,ioos:station:wmo:42887:1,2014-02-02T19:00:00Z,28.1910,-88.4960,48.2,5.7,164.0,99.0,'11111222,11111222,11144222' 
ADCP,ioos:station:wmo:42887:1,2014-02-02T19:20:00Z,28.1910,-88.4960,48.2,8.2,142.0,99.0,'11111222,11111222,11144222' 
ADCP,ioos:station:wmo:42887:1,2014-02-02T19:40:00Z,28.1910,-88.4960,48.2,3.8,156.0,99.0,'11111222,11111222,11144222' 
ADCP,ioos:station:wmo:42887:1,2014-02-02T20:00:00Z,28.1910,-88.4960,48.2,3.4,171.0,99.0,'11111222,11111222,11144222' 
ADCP,ioos:station:wmo:42887:1,2014-02-02T20:20:00Z,28.1910,-88.4960,48.2,9.6,135.0,99.0,'11111222,11111222,11144222' 
ADCP,ioos:station:wmo:42887:1,2014-02-02T20:40:00Z,28.1910,-88.4960,48.2,8.8,137.0,99.0,'11111222,11111222,11144222' 
ADCP,ioos:station:wmo:42887:1,2014-02-02T21:00:00Z,28.1910,-88.4960,48.2,8.5,140.0,99.0,'11111222,11111222,11144222' 
ADCP,ioos:station:wmo:42887:1,2014-02-02T21:20:00Z,28.1910,-88.4960,48.2,8.6,138.0,99.0,'11111222,11111222,11144222' 
ADCP,ioos:station:wmo:42887:1,2014-02-02T21:40:00Z,28.1910,-88.4960,48.2,9.0,135.0,99.0,'11111222,11111222,11144222' 
ADCP,ioos:station:wmo:42887:1,2014-02-02T22:00:00Z,28.1910,-88.4960,48.2,7.6,138.0,99.0,'11111222,11111222,11144222' 
ADCP,ioos:station:wmo:42887:1,2014-02-02T22:20:00Z,28.1910,-88.4960,48.2,8.3,140.0,99.0,'11111222,11111222,11144222' 
ADCP,ioos:station:wmo:42887:1,2014-02-02T22:40:00Z,28.1910,-88.4960,48.2,8.3,140.0,99.0,'11111222,11111222,11144222' 
ADCP,ioos:station:wmo:42887:1,2014-02-02T23:00:00Z,28.1910,-88.4960,48.2,8.4,136.0,99.0,'11111222,11111222,11144222' 
ADCP,ioos:station:wmo:42887:1,2014-02-02T23:20:00Z,28.1910,-88.4960,48.2,9.1,141.0,99.0,'11111222,11111222,11144222' 
ADCP,ioos:station:wmo:42887:1,2014-02-02T23:40:00Z,28.1910,-88.4960,48.2,9.9,144.0,99.0,'11111222,11111222,11144222' 
ADCP,ioos:station:wmo:42887:1,2014-02-03T00:00:00Z,28.1910,-88.4960,48.2,9.8,150.0,99.0,'11111222,11111222,11144222' 
ADCP,ioos:station:wmo:42887:1,2014-02-03T00:20:00Z,28.1910,-88.4960,48.2,10.2,149.0,99.0,'11111222,11111222,11144222' 
ADCP,ioos:station:wmo:42887:1,2014-02-03T00:40:00Z,28.1910,-88.4960,48.2,10.8,149.0,99.0,'11111222,11111222,11144222' 
ADCP,ioos:station:wmo:42887:1,2014-02-03T01:00:00Z,28.1910,-88.4960,48.2,10.2,148.0,99.0,'11111222,11111222,11144222' 
ADCP,ioos:station:wmo:42887:1,2014-02-03T01:20:00Z,28.1910,-88.4960,48.2,10.1,150.0,99.0,'11111222,11111222,11144222' 
ADCP,ioos:station:wmo:42887:1,2014-02-03T01:40:00Z,28.1910,-88.4960,48.2,9.3,149.0,99.0,'11111222,11111222,11144222' 
ADCP,ioos:station:wmo:42887:1,2014-02-03T02:00:00Z,28.1910,-88.4960,48.2,9.3,151.0,99.0,'11111222,11111222,11144222' 
ADCP,ioos:station:wmo:42887:1,2014-02-03T02:20:00Z,28.1910,-88.4960,48.2,9.1,152.0,99.0,'11111222,11111222,11144222' 
ADCP,ioos:station:wmo:42887:1,2014-02-03T02:40:00Z,28.1910,-88.4960,48.2,9.4,153.0,99.0,'11111222,11111222,11144222' 
ADCP,ioos:station:wmo:42887:1,2014-02-03T03:00:00Z,28.1910,-88.4960,48.2,9.7,152.0,99.0,'11111222,11111222,11144222' 
ADCP,ioos:station:wmo:42887:1,2014-02-03T03:20:00Z,28.1910,-88.4960,48.2,9.5,156.0,99.0,'11111222,11111222,11144222' 
ADCP,ioos:station:wmo:42887:1,2014-02-03T03:40:00Z,28.1910,-88.4960,48.2,9.0,155.0,99.0,'11111222,11111222,11144222' 
ADCP,ioos:station:wmo:42887:1,2014-02-03T04:00:00Z,28.1910,-88.4960,48.2,8.5,159.0,99.0,'11111222,11111222,11144222' 
ADCP,ioos:station:wmo:42887:1,2014-02-03T04:20:00Z,28.1910,-88.4960,48.2,8.7,160.0,99.0,'11111222,11111222,11144222' 
ADCP,ioos:station:wmo:42887:1,2014-02-03T04:40:00Z,28.1910,-88.4960,48.2,8.6,158.0,99.0,'11111222,11111222,11144222' 
ADCP,ioos:station:wmo:42887:1,2014-02-03T05:00:00Z,28.1910,-88.4960,48.2,8.1,160.0,99.0,'11111222,11111222,11144222' 
ADCP,ioos:station:wmo:42887:1,2014-02-03T05:20:00Z,28.1910,-88.4960,48.2,8.9,162.0,99.0,'11111222,11111222,11144222' 
ADCP,ioos:station:wmo:42887:1,2014-02-03T05:40:00Z,28.1910,-88.4960,48.2,8.3,163.0,99.0,'11111222,11111222,11144222' 
ADCP,ioos:station:wmo:42887:1,2014-02-03T06:00:00Z,28.1910,-88.4960,48.2,8.9,164.0,99.0,'11111222,11111222,11144222' 
ADCP,ioos:station:wmo:42887:1,2014-02-03T06:20:00Z,28.1910,-88.4960,48.2,8.1,161.0,99.0,'11111222,11111222,11144222' 
ADCP,ioos:station:wmo:42887:1,2014-02-03T06:40:00Z,28.1910,-88.4960,48.2,8.7,161.0,99.0,'11111222,11111222,11144222' 
ADCP,ioos:station:wmo:42887:1,2014-02-03T07:00:00Z,28.1910,-88.4960,48.2,8.5,164.0,99.0,'11111222,11111222,11144222' 
ADCP,ioos:station:wmo:42887:1,2014-02-03T07:20:00Z,28.1910,-88.4960,48.2,8.3,168.0,99.0,'11111222,11111222,11144222' 
ADCP,ioos:station:wmo:42887:1,2014-02-03T07:40:00Z,28.1910,-88.4960,48.2,7.5,170.0,99.0,'11111222,11111222,11144222' 
ADCP,ioos:station:wmo:42887:1,2014-02-03T08:00:00Z,28.1910,-88.4960,48.2,7.3,172.0,99.0,'11111222,11111222,11144222' 
ADCP,ioos:station:wmo:42887:1,2014-02-03T08:20:00Z,28.1910,-88.4960,48.2,6.8,177.0,99.0,'11111222,11111222,11144222' 
ADCP,ioos:station:wmo:42887:1,2014-02-03T08:40:00Z,28.1910,-88.4960,48.2,7.2,183.0,99.0,'11111222,11111222,11144222' 
ADCP,ioos:station:wmo:42887:1,2014-02-03T09:00:00Z,28.1910,-88.4960,48.2,7.7,180.0,99.0,'11111222,11111222,11144222' 
ADCP,ioos:station:wmo:42887:1,2014-02-03T09:20:00Z,28.1910,-88.4960,48.2,7.9,175.0,99.0,'11111222,11111222,11144222' 
ADCP,ioos:station:wmo:42887:1,2014-02-03T09:40:00Z,28.1910,-88.4960,48.2,7.8,174.0,99.0,'11111222,11111222,11144222' 
ADCP,ioos:station:wmo:42887:1,2014-02-03T10:00:00Z,28.1910,-88.4960,48.2,7.2,174.0,99.0,'11111222,11111222,11144222' 
ADCP,ioos:station:wmo:42887:1,2014-02-03T10:20:00Z,28.1910,-88.4960,48.2,6.8,174.0,99.0,'11111222,11111222,11144222' 
ADCP,ioos:station:wmo:42887:1,2014-02-03T10:40:00Z,28.1910,-88.4960,48.2,6.2,172.0,99.0,'11111222,11111222,11144222' 
ADCP,ioos:station:wmo:42887:1,2014-02-03T11:00:00Z,28.1910,-88.4960,48.2,5.9,174.0,99.0,'11111222,11111222,11144222' 
ADCP,ioos:station:wmo:42887:1,2014-02-03T11:20:00Z,28.1910,-88.4960,48.2,4.4,180.0,99.0,'11111222,11111222,11144222' 
ADCP,ioos:station:wmo:42887:1,2014-02-03T11:40:00Z,28.1910,-88.4960,48.2,4.3,184.0,99.0,'11111222,11111222,11144222' 
ADCP,ioos:station:wmo:42887:1,2014-02-03T12:00:00Z,28.1910,-88.4960,48.2,6.3,191.0,99.0,'11111222,11111222,11144222' 
ADCP,ioos:station:wmo:42887:1,2014-02-03T12:20:00Z,28.1910,-88.4960,48.2,5.1,196.0,99.0,'11111222,11111222,11144222' 
ADCP,ioos:station:wmo:42887:1,2014-02-03T12:40:00Z,28.1910,-88.4960,48.2,5.2,198.0,99.0,'11111222,11111222,11144222' 
ADCP,ioos:station:wmo:42887:1,2014-02-03T13:00:00Z,28.1910,-88.4960,48.2,4.0,216.0,99.0,'11111222,11111222,11144222' 
ADCP,ioos:station:wmo:42887:1,2014-02-03T13:20:00Z,28.1910,-88.4960,48.2,4.2,222.0,99.0,'11111222,11111222,11144222' 
ADCP,ioos:station:wmo:42887:1,2014-02-03T13:40:00Z,28.1910,-88.4960,48.2,3.9,223.0,99.0,'11111222,11111222,11144222' 
ADCP,ioos:station:wmo:42887:1,2014-02-03T14:00:00Z,28.1910,-88.4960,48.2,7.9,321.0,99.0,'11111222,11111222,11144222' 
ADCP,ioos:station:wmo:42887:1,2014-02-03T14:20:00Z,28.1910,-88.4960,48.2,5.8,347.0,99.0,'11111222,11111222,11144222' 
ADCP,ioos:station:wmo:42887:1,2014-02-03T14:40:00Z,28.1910,-88.4960,48.2,6.0,346.0,99.0,'11111222,11111222,11144222' 
ADCP,ioos:station:wmo:42887:1,2014-02-03T15:00:00Z,28.1910,-88.4960,48.2,5.6,352.0,99.0,'11111222,11111222,11144222' 
ADCP,ioos:station:wmo:42887:1,2014-02-03T15:20:00Z,28.1910,-88.4960,48.2,5.7,357.0,99.0,'11111222,11111222,11144222' 
ADCP,ioos:station:wmo:42887:1,2014-02-03T15:40:00Z,28.1910,-88.4960,48.2,6.6,342.0,99.0,'11111222,11111222,11144222' 
ADCP,ioos:station:wmo:42887:1,2014-02-03T16:00:00Z,28.1910,-88.4960,48.2,5.6,351.0,99.0,'11111222,11111222,11144222' 
ADCP,ioos:station:wmo:42887:1,2014-02-03T16:20:00Z,28.1910,-88.4960,48.2,5.1,357.0,99.0,'11111222,11111222,11144222' 
ADCP,ioos:station:wmo:42887:1,2014-02-03T16:40:00Z,28.1910,-88.4960,48.2,4.9,357.0,99.0,'11111222,11111222,11144222' 
ADCP,ioos:station:wmo:42887:1,2014-02-03T17:00:00Z,28.1910,-88.4960,48.2,5.2,357.0,99.0,'11111222,11111222,11144222' 
ADCP,ioos:station:wmo:42887:1,2014-02-03T17:20:00Z,28.1910,-88.4960,48.2,4.5,353.0,99.0,'11111222,11111222,11144222' 
ADCP,ioos:station:wmo:42887:1,2014-02-03T17:40:00Z,28.1910,-88.4960,48.2,5.0,4.0,99.0,'11111222,11111222,11144222' 
ADCP,ioos:station:wmo:42887:1,2014-02-03T18:00:00Z,28.1910,-88.4960,48.2,4.7,14.0,99.0,'11111222,11111222,11144222' 
ADCP,ioos:station:wmo:42887:1,2014-02-03T18:20:00Z,28.1910,-88.4960,48.2,4.3,27.0,99.0,'11111222,11111222,11144222' 
ADCP,ioos:station:wmo:42887:1,2014-02-03T18:40:00Z,28.1910,-88.4960,48.2,3.7,17.0,99.0,'11111222,11111222,11144222' 
ADCP,ioos:station:wmo:42887:1,2014-02-03T19:00:00Z,28.1910,-88.4960,48.2,4.3,360.0,99.0,'11111222,11144222,11144222' 